User: anonymous   Login
Location: ??????
(55.8274°N, 37.9338°E)
Time: 15:45:05
(UTC+00:00)
Language:

ALOS - Orbit

View from above orbital plane
View from above orbital plane
View from above satellite
View from above satellite

Ground track
Ground track

The orbit data is extracted from the following two-line orbital elements,

1 28931U 06002A   24177.48486035  .00002050  00000-0  38376-3 0  9997
2 28931  98.0371 130.3660 0002511  97.8531 262.2958 14.65867699982569
Epoch (UTC): 25 June 2024 11:38:11
Eccentricity: 0.0002511
inclination: 98.0371°
perigee height: 672 km
apogee height: 676 km
right ascension of ascending node: 130.3660°
argument of perigee: 97.8531°
revolutions per day: 14.65867699
mean anomaly at epoch: 262.2958°
orbit number at epoch: 98256

The dashed part of the orbit path shows where the satellite is in the earth's shadow,  

DLR